Key statistics
Satellite FENGYUN 1C DEB at a glance.
Uptime
9396
Days in orbit
Revolutions
≈ 15.6
Per day
Orbit
SSO
Sun Synchronous Orbit
Inclination
99.0
Latest
Satellite identification and parameters
Extended collection of information and parameters for FENGYUN 1C DEB.
Object identification
Identified? True
Debris? True
Object name: FENGYUN 1C DEB
International designator: 1999-025TC
Object number (NORAD): 30147
Object ID (CCSDS): 30147
Country: PEOPLES REPUBLIC OF CHINA (PRC)
Current information (Y/N): Y
RCS size: SMALL
Orbital parameters
Decay date: Jan. 29, 2025
Period: 92.212 minutes
Inclination: 99.0042 deg
SMA: 6761.139 km
Apoapsis: 408.526 km
Periapsis: 357.482 km
RAAN: 313.6112 deg
Eccentricy: 0.0037748
Argument of periapsis: 139.2522 deg
Mean anomaly: 221.1565 deg
Mean motion: 15.61611271 rev/day
Mean motion (dot): 0.06682033 rev/day2
B* drag term: 0.063112 1/REarth
Two-line elements (TLE)
Creation date: Jan. 28, 2025, 2:16 p.m.
Reference frame: TEME
Reference center: EARTH
Epoch: Jan. 22, 2025, 5:20 a.m. UTC
TLE line 0: 0 FENGYUN 1C DEB
TLE line 1: 1 30147U 99025TC 25022.22280896 .06682033 00000-0 63112-1 0 9990
TLE line 2: 2 30147 99.0042 313.6112 0037748 139.2522 221.1565 15.61611271923222
Live tracking on map
Satellite FENGYUN 1C DEB has decayed and is no longer in orbit. No tracking available.
In-orbit conjunctions
Satellite FENGYUN 1C DEB has decayed and is no longer in orbit. No conjunctions available.
Associated space launch
Chinese polar orbiting meteorological satellite
FENGYUN 1C DEB was lifted into orbit during the mission ‘Long March 4B | Feng Yun 1C’, on board a Long March 4B space rocket.
The launch took place on May 10, 1999, 1:33 a.m. from Launch Complex 7.
For more information about the launch, click the button.
Long March 4B | Feng Yun 1C
Agency: N/A
Status: Launch Successful
Launch date: May 10, 1999, 1:33 a.m. UTC
Rocket: Long March 4B
Launch pad: Launch Complex 7
Location: Taiyuan Satellite Launch Center, People's Republic of China
...
Latest news about this satellite
There are no fresh news available about this satellite. Check back as we update our databases every day.
Newsletter sign-up
Weekly statistics, charts and insights to help you stay on top of the space industry.
